Location: Colle Santa Colomba
(42.0333°N, 12.5667°E)
Time: 20:14:15
(UTC+00:00)

Milstar 3 Cent rocket - Pass Details

Date: 25 October 2021
Orbit: 706 x 5147 km, 28.3° (Epoch: 04 December)

Event Time Altitude Azimuth Distance (km) Brightness Sun altitude
Rises 19:01:31 0° 236° (WSW) 3,689 6.1 -31.8°
Reaches altitude 10° 19:03:51 10° 227° (SW) 3,017 5.4 -32.2°
Enters shadow 19:09:30 35° 175° (S) 2,365 4.2 -33.3°
